カタログに戻る

COSMOS 2496

運用中軍事PO
NORAD 39761·PAYLOAD·🇷🇺 Russia

打ち上げ May 23, 2014 から Plesetsk Cosmodrome

Loading…

次のパス (今後24時間)

TLE

最新Source: Space-Track

元期: Sep 14, 2026, 14:47 UTC

1 39761U 14028A   26257.61652382 -.00000142  00000-0 -10975-2 0  9999
2 39761  82.4435  52.6943 0019286 243.6285 116.2815 12.42880586558623

AllMySatでCOSMOS 2496をリアルタイム追跡

Download on the App Store